sat.trackr.live / text

‹ back to catalog

STARLINK-36871

NORAD 68023 · 2026-040J

PAYLOAD ACTIVE UNKNOWN

§ Identity

Operator
Country
US
Launch date
2026-03-01
Launch site
AFWTR
Launch vehicle
Mass (kg)
RCS (m²)

Purposes: comms

External: N2YO · Heavens-Above · Gunter

§ Orbital elements

Epoch: 2026-05-25T02:44:56.472000Z

Period
93.91 min
Inclination
97.2861°
Eccentricity
0.0001389
Mean motion
15.33445884 rev/d
Perigee alt
464.6 km
Apogee alt
466.5 km
Semi-major
6,843.7 km
B*
5.7808e-4
RAAN
94.1073°
Arg perigee
97.9097°
Mean anomaly
262.2303°
Rev number
1,317

§ Raw data

STARLINK-368711 68023U 26040J   26145.11454250  .00018634  00000+0  57808-3 0  99932 68023  97.2861  94.1073 0001389  97.9097 262.2303 15.33445884 13175

JSON: /api/v1/satellites/68023 · /tle

For live sub-satellite position, see the globe view (requires WebGL).

§ Visibility from observer

Set your observer location to see the next 7 days of passes ≥ 10°. The values pass through the URL so the page stays shareable.

No JS? Fill the form by hand. The geolocation button needs JavaScript.